This is the latest recevied weather packets stored in our database for station/object K6HFP. If no packets are shown the sender has not sent any weather packets the latest 10 day(s).
| Time | Temp. | Humidity | Pressure | Rain* | Wind** | Luminosity | Snow |
|---|---|---|---|---|---|---|---|
| 1777071718 | 21.11° C | 47% | 1009.7 hPa | 0 mm | - | 705 W/m² | - |
| 1777071414 | 20.56° C | 46% | 1009.9 hPa | 0 mm | - | 727 W/m² | - |
| 1777071109 | 21.11° C | 46% | 1010 hPa | 0 mm | - | 729 W/m² | - |
| 1777070806 | 20.56° C | 46% | 1009.6 hPa | 0 mm | - | 746 W/m² | - |
| 1777070504 | 21.11° C | 49% | 1010.2 hPa | 0 mm | - | 757 W/m² | - |
| 1777070202 | 21.11° C | 48% | 1009.8 hPa | 0 mm | - | 768 W/m² | - |
| 1777069898 | 21.11° C | 48% | 1010.1 hPa | 0 mm | - | 783 W/m² | - |
| 1777069597 | 21.67° C | 47% | 1010.2 hPa | 0 mm | - | 797 W/m² | - |
| 1777069293 | 21.67° C | 50% | 1010.3 hPa | 0 mm | - | 808 W/m² | - |
| 1777068989 | 21.11° C | 52% | 1010.5 hPa | 0 mm | - | 822 W/m² | - |
| 1777068686 | 20.56° C | 51% | 1010.5 hPa | 0 mm | - | 844 W/m² | - |
| 1777068386 | 20.56° C | 50% | 1010.3 hPa | 0 mm | - | 866 W/m² | - |
| 1777068081 | 21.11° C | 51% | 1010.2 hPa | 0 mm | - | 893 W/m² | - |
| 1777067780 | 21.11° C | 53% | 1010.5 hPa | 0 mm | - | 930 W/m² | - |
| 1777067479 | 21.11° C | 49% | 1010.5 hPa | 0 mm | - | 955 W/m² | - |
| 1777067178 | 20.56° C | 46% | 1010.6 hPa | 0 mm | - | 884 W/m² | - |
| 1777066874 | 20.56° C | 46% | 1010.6 hPa | 0 mm | - | 881 W/m² | - |
| 1777066569 | 20.56° C | 49% | 1010.6 hPa | 0 mm | - | 797 W/m² | - |
| 1777066265 | 20° C | 50% | 1010.7 hPa | 0 mm | - | 715 W/m² | - |
| 1777065964 | 20° C | 54% | 1010.6 hPa | 0 mm | - | 616 W/m² | - |
| 1777065660 | 20° C | 51% | 1010.5 hPa | 0 mm | - | 528 W/m² | - |
| 1777065360 | 20° C | 53% | 1010.8 hPa | 0 mm | - | 762 W/m² | - |
| 1777065056 | 20.56° C | 54% | 1010.8 hPa | 0 mm | - | 672 W/m² | - |
| 1777064753 | 20° C | 54% | 1010.8 hPa | 0 mm | - | 858 W/m² | - |
| 1777064449 | 20° C | 50% | 1010.8 hPa | 0 mm | - | 913 W/m² | - |
* Rain latest hour (hover to see other rain measurements)
** Current wind speed in m/s (hover to see current wind gust speed)